Location: ?????
(33.6267°N, 35.4675°E)
Time: 16:32:23
(UTC+00:00)

NOSS 2-3 (D) - Pass Details

Date: 12 November 2019
Orbit: 597 x 1615 km, 63.4° (Epoch: 03 December)

Event Time Altitude Azimuth Distance (km) Brightness Sun altitude
Rises 16:45:05 0° 222° (SW) 2,825 7.6 -26.7°
Reaches altitude 10° 16:47:19 10° 228° (SW) 1,927 6.7 -27.1°
Enters shadow 16:51:16 50° 296° (WNW) 796 4.3 -28.0°
